Weather History for KBOI - February, 2013

Change the Weather History Date:

Friday, February 22, 2013

  Actual Average Record
Temperature  
Mean Temperature 37 °F 38 °F  
Max Temperature 44 °F 47 °F 67 °F (1958)
Min Temperature 29 °F 30 °F 4 °F (1894)
Degree Days  
Heating Degree Days 28 27  
Month to date heating degree days 641 645  
Since 1 July heating degree days 3918 4006  
Cooling Degree Days 0 0  
Month to date cooling degree days 0 0  
Year to date cooling degree days 0 0  
Moisture  
Dew Point 28 °F    
Average Humidity 67    
Maximum Humidity 85    
Minimum Humidity 49    
Precipitation  
Precipitation 0.19 in 0.03 in 0.68 in (1890)
Month to date precipitation 0.27 0.76  
Year to date precipitation 1.48 2.00  
Snow  
Snow 0.00 in 0.10 in 4.00 in (1912)
Month to date snowfall 1.8 2.4  
Since 1 July snowfall 13.6 17.2  
Snow Depth 0.00 in    
Sea Level Pressure  
Sea Level Pressure 30.07 in    
Wind  
Wind Speed 5 mph (SE)    
Max Wind Speed 16 mph    
Max Gust Speed 22 mph    
Visibility 10 miles    
Events Rain , Snow    
T = Trace of Precipitation, MM = Missing Value Source: NWS Daily Summary

Daily Weather History Graph

Daily Weather History Graph

Search for Another Location

Airport or City:

Trip Planner

Search our weather history database for the weather conditions in past years. The results will help you decide how hot, cold, wet, or windy it might be!

Date:

Astronomy

Feb. 22, 2013 Rise Set
Actual Time 7:32 AM MST 6:25 PM MST
Civil Twilight 7:03 AM MST 6:54 PM MST
Nautical Twilight 6:30 AM MST 7:27 PM MST
Astronomical Twilight 5:56 AM MST 8:00 PM MST
Moon 3:37 PM MST (2/22) 5:24 AM MST (2/22)
Length of Visible Light 11h 50m
Length of Day
10h 52m
Waxing Gibbous, 90% of the Moon is Illuminated
Feb 22
Waxing Gibbous
Feb 25
Full
Mar 4
Last Quarter
Mar 11
New
Mar 19
First Quarter

Hourly Weather History & Observations

Time (MST) Temp. Windchill Dew Point Humidity Pressure Visibility Wind Dir Wind Speed Gust Speed Precip Events Conditions
12:53 AM 32.0 °F - 26.6 °F 80% 30.07 in 10.0 mi Calm Calm - N/A   Mostly Cloudy
1:53 AM 28.9 °F - 24.1 °F 82% 30.12 in 10.0 mi Calm Calm - N/A   Scattered Clouds
2:53 AM 30.0 °F 26.5 °F 24.1 °F 79% 30.12 in 10.0 mi ESE 3.5 mph - N/A   Overcast
3:53 AM 30.0 °F - 25.0 °F 82% 30.12 in 10.0 mi Calm Calm - N/A   Overcast
4:53 AM 30.9 °F - 26.1 °F 82% 30.12 in 10.0 mi Calm Calm - N/A   Overcast
5:53 AM 32.0 °F - 27.0 °F 82% 30.13 in 10.0 mi Calm Calm - N/A   Overcast
6:53 AM 33.1 °F - 26.1 °F 75% 30.15 in 10.0 mi Calm Calm - N/A   Overcast
7:53 AM 33.1 °F - 27.0 °F 78% 30.17 in 10.0 mi Calm Calm - N/A   Overcast
8:53 AM 36.0 °F - 27.0 °F 70% 30.17 in 9.0 mi Calm Calm - 0.00 in   Overcast
9:53 AM 37.9 °F - 27.0 °F 65% 30.17 in 10.0 mi Calm Calm - N/A   Overcast
10:53 AM 39.9 °F 37.8 °F 26.1 °F 58% 30.17 in 10.0 mi SW 3.5 mph - N/A   Overcast
11:53 AM 39.9 °F 37.8 °F 25.0 °F 55% 30.18 in 10.0 mi SW 3.5 mph - N/A   Overcast
12:16 PM 39.2 °F 37.0 °F 26.6 °F 61% 30.12 in 10.0 mi WSW 3.5 mph - N/A   Overcast
12:53 PM 41.0 °F 39.0 °F 26.1 °F 55% 30.14 in 10.0 mi West 3.5 mph - N/A   Overcast
1:53 PM 41.0 °F 37.1 °F 27.0 °F 57% 30.11 in 10.0 mi ENE 5.8 mph - N/A   Overcast
2:53 PM 43.0 °F 38.8 °F 26.1 °F 51% 30.07 in 10.0 mi Variable 6.9 mph - N/A   Overcast
3:53 PM 44.1 °F 40.1 °F 26.1 °F 49% 30.05 in 10.0 mi East 6.9 mph - N/A   Overcast
4:53 PM 43.0 °F 37.7 °F 26.1 °F 51% 30.02 in 10.0 mi East 9.2 mph - N/A   Overcast
5:53 PM 42.1 °F 38.4 °F 28.9 °F 60% 30.02 in 10.0 mi Variable 5.8 mph - 0.00 in Rain Light Rain
6:30 PM 39.2 °F 34.2 °F 32.0 °F 75% 29.98 in 10.0 mi SSE 6.9 mph - 0.01 in Rain Light Rain
6:53 PM 37.9 °F 32.7 °F 33.1 °F 83% 30.02 in 7.0 mi SE 6.9 mph - 0.02 in Rain Light Rain
7:53 PM 34.0 °F 27.2 °F 32.0 °F 92% 30.02 in 3.0 mi ESE 8.1 mph - 0.09 in Snow Light Snow
8:39 PM 35.6 °F 26.6 °F 33.8 °F 93% 29.92 in 10.0 mi ESE 13.8 mph - 0.05 in Rain Light Rain
8:53 PM 35.1 °F 26.4 °F 33.1 °F 92% 29.96 in 10.0 mi ESE 12.7 mph - 0.05 in Rain Light Rain
9:53 PM 37.0 °F 29.8 °F 33.1 °F 86% 29.93 in 10.0 mi ESE 10.4 mph - 0.00 in Rain Light Rain
10:53 PM 37.0 °F 29.8 °F 34.0 °F 89% 29.90 in 9.0 mi ESE 10.4 mph - 0.01 in Rain Light Rain
11:53 PM 37.0 °F 28.1 °F 34.0 °F 89% 29.86 in 10.0 mi ESE 15.0 mph - 0.02 in Rain Light Rain